Time,TemperatureF,DewpointF,PressureIn,WindDirection,WindDirectionDegrees,WindSpeedMPH,WindSpeedGustMPH,Humidity,HourlyPrecipIn,Conditions,Clouds,dailyrainin,SoftwareType,DateUTC
2013-02-27 00:02:00,29.6,23.9,30.44,NNW,346,9.0,35.0,79,0.00,,,0.00,Wunderground v.1.15,2013-02-27 07:02:00,
2013-02-27 00:08:00,29.6,23.9,30.44,NNW,336,8.0,35.0,79,0.00,,,0.00,Wunderground v.1.15,2013-02-27 07:08:00,
2013-02-27 00:14:00,29.7,23.4,30.44,NNW,332,8.0,35.0,77,0.00,,,0.00,Wunderground v.1.15,2013-02-27 07:14:00,
2013-02-27 00:20:00,29.8,23.5,30.44,North,354,8.0,35.0,77,0.00,,,0.00,Wunderground v.1.15,2013-02-27 07:20:00,
2013-02-27 00:26:00,29.9,23.3,30.44,NNW,330,9.0,35.0,76,0.00,,,0.00,Wunderground v.1.15,2013-02-27 07:26:00,
2013-02-27 00:32:00,29.9,22.9,30.45,NNW,336,9.0,35.0,75,0.00,,,0.00,Wunderground v.1.15,2013-02-27 07:32:00,
2013-02-27 00:38:00,29.8,22.8,30.45,NNW,336,9.0,35.0,75,0.00,,,0.00,Wunderground v.1.15,2013-02-27 07:38:00,
2013-02-27 00:44:00,29.8,22.8,30.45,NNW,344,9.0,35.0,75,0.00,,,0.00,Wunderground v.1.15,2013-02-27 07:44:00,
2013-02-27 00:50:00,29.8,22.8,30.45,NNW,347,10.0,10.0,75,0.00,,,0.00,Wunderground v.1.15,2013-02-27 07:50:00,
2013-02-27 00:56:00,29.8,22.8,30.45,NNW,343,9.0,35.0,75,0.00,,,0.00,Wunderground v.1.15,2013-02-27 07:56:00,
2013-02-27 01:02:00,29.7,23.1,30.45,NNW,338,8.0,11.0,76,0.00,,,0.00,Wunderground v.1.15,2013-02-27 08:02:00,
2013-02-27 01:08:00,29.7,23.1,30.45,North,349,9.0,35.0,76,0.00,,,0.00,Wunderground v.1.15,2013-02-27 08:08:00,
2013-02-27 01:14:00,29.5,22.9,30.45,NW,318,9.0,35.0,76,0.00,,,0.00,Wunderground v.1.15,2013-02-27 08:14:00,
2013-02-27 01:20:00,29.4,22.8,30.45,NNW,344,10.0,35.0,76,0.00,,,0.00,Wunderground v.1.15,2013-02-27 08:20:00,
2013-02-27 01:26:00,29.2,22.9,30.45,NNW,343,9.0,35.0,77,0.00,,,0.00,Wunderground v.1.15,2013-02-27 08:26:00,
2013-02-27 01:32:00,29.0,22.7,30.46,North,350,9.0,35.0,77,0.00,,,0.00,Wunderground v.1.15,2013-02-27 08:32:00,
2013-02-27 01:38:00,29.0,22.7,30.46,NNW,345,9.0,35.0,77,0.00,,,0.00,Wunderground v.1.15,2013-02-27 08:38:00,
2013-02-27 01:44:00,28.9,22.6,30.46,NW,326,8.0,35.0,77,0.00,,,0.00,Wunderground v.1.15,2013-02-27 08:44:00,
2013-02-27 01:50:00,28.7,22.7,30.46,North,354,8.0,35.0,78,0.00,,,0.00,Wunderground v.1.15,2013-02-27 08:50:00,
2013-02-27 01:56:00,28.7,22.7,30.46,North,4,8.0,35.0,78,0.00,,,0.00,Wunderground v.1.15,2013-02-27 08:56:00,
2013-02-27 02:02:00,28.7,22.7,30.46,NNW,344,8.0,35.0,78,0.00,,,0.00,Wunderground v.1.15,2013-02-27 09:02:00,
2013-02-27 02:08:00,28.7,22.7,30.45,North,354,9.0,35.0,78,0.00,,,0.00,Wunderground v.1.15,2013-02-27 09:08:00,
2013-02-27 02:14:00,28.6,22.6,30.45,North,354,10.0,35.0,78,0.00,,,0.00,Wunderground v.1.15,2013-02-27 09:14:00,
2013-02-27 02:20:00,28.7,22.7,30.45,North,359,10.0,10.0,78,0.00,,,0.00,Wunderground v.1.15,2013-02-27 09:20:00,
2013-02-27 02:26:00,28.6,22.6,30.45,North,349,10.0,35.0,78,0.00,,,0.00,Wunderground v.1.15,2013-02-27 09:26:00,
2013-02-27 02:32:00,28.6,22.6,30.45,NNW,328,10.0,35.0,78,0.00,,,0.00,Wunderground v.1.15,2013-02-27 09:32:00,
2013-02-27 02:38:00,28.6,22.6,30.45,NNW,345,11.0,35.0,78,0.00,,,0.00,Wunderground v.1.15,2013-02-27 09:38:00,
2013-02-27 02:44:00,28.4,22.4,30.45,NNW,334,10.0,35.0,78,0.00,,,0.00,Wunderground v.1.15,2013-02-27 09:44:00,
2013-02-27 02:50:00,28.2,22.2,30.45,North,354,10.0,35.0,78,0.00,,,0.00,Wunderground v.1.15,2013-02-27 09:50:00,
2013-02-27 02:56:00,28.1,22.1,30.45,NNW,343,10.0,35.0,78,0.00,,,0.00,Wunderground v.1.15,2013-02-27 09:56:00,
2013-02-27 03:02:00,28.0,22.0,30.45,NNW,332,10.0,35.0,78,0.00,,,0.00,Wunderground v.1.15,2013-02-27 10:02:00,
2013-02-27 03:08:00,28.0,22.0,30.45,NNW,339,11.0,35.0,78,0.00,,,0.00,Wunderground v.1.15,2013-02-27 10:08:00,
2013-02-27 03:14:00,28.0,22.0,30.45,NNW,339,11.0,35.0,78,0.00,,,0.00,Wunderground v.1.15,2013-02-27 10:14:00,
2013-02-27 03:20:00,28.1,21.8,30.45,NNW,336,11.0,35.0,77,0.00,,,0.00,Wunderground v.1.15,2013-02-27 10:20:00,
2013-02-27 03:26:00,28.2,21.9,30.45,North,354,12.0,35.0,77,0.00,,,0.00,Wunderground v.1.15,2013-02-27 10:26:00,
2013-02-27 03:32:00,28.0,21.7,30.45,NNW,328,12.0,17.0,77,0.00,,,0.00,Wunderground v.1.15,2013-02-27 10:32:00,
2013-02-27 03:38:00,27.9,21.6,30.46,NNW,337,11.0,35.0,77,0.00,,,0.00,Wunderground v.1.15,2013-02-27 10:38:00,
2013-02-27 03:44:00,27.8,21.5,30.46,NW,324,11.0,35.0,77,0.00,,,0.00,Wunderground v.1.15,2013-02-27 10:44:00,
2013-02-27 03:50:00,27.8,21.5,30.45,NNW,335,12.0,35.0,77,0.00,,,0.00,Wunderground v.1.15,2013-02-27 10:50:00,
2013-02-27 03:56:00,27.7,21.4,30.46,NW,326,11.0,35.0,77,0.00,,,0.00,Wunderground v.1.15,2013-02-27 10:56:00,
2013-02-27 04:02:00,27.6,21.3,30.46,NW,324,11.0,35.0,77,0.00,,,0.00,Wunderground v.1.15,2013-02-27 11:02:00,
2013-02-27 04:08:00,27.5,21.5,30.46,NNW,332,11.0,35.0,78,0.00,,,0.00,Wunderground v.1.15,2013-02-27 11:08:00,
2013-02-27 04:14:00,27.4,21.4,30.46,NNW,332,11.0,35.0,78,0.00,,,0.00,Wunderground v.1.15,2013-02-27 11:14:00,
2013-02-27 04:20:00,27.2,21.2,30.46,NNW,339,11.0,35.0,78,0.00,,,0.00,Wunderground v.1.15,2013-02-27 11:20:00,
2013-02-27 04:26:00,27.0,21.4,30.47,NNW,339,11.0,35.0,79,0.00,,,0.00,Wunderground v.1.15,2013-02-27 11:26:00,
2013-02-27 04:32:00,26.7,20.8,30.47,NNW,337,9.0,35.0,78,0.00,,,0.00,Wunderground v.1.15,2013-02-27 11:32:00,
2013-02-27 04:38:00,26.3,20.7,30.47,NNW,344,9.0,35.0,79,0.00,,,0.00,Wunderground v.1.15,2013-02-27 11:38:00,
2013-02-27 04:44:00,25.9,20.3,30.47,NNW,343,9.0,35.0,79,0.00,,,0.00,Wunderground v.1.15,2013-02-27 11:44:00,
2013-02-27 04:50:00,25.6,20.3,30.48,North,354,9.0,9.0,80,0.00,,,0.00,Wunderground v.1.15,2013-02-27 11:50:00,
2013-02-27 04:56:00,25.6,20.3,30.48,NNW,344,8.0,35.0,80,0.00,,,0.00,Wunderground v.1.15,2013-02-27 11:56:00,
2013-02-27 05:02:00,25.4,20.4,30.48,NNW,348,8.0,35.0,81,0.00,,,0.00,Wunderground v.1.15,2013-02-27 12:02:00,
2013-02-27 05:08:00,25.2,20.2,30.48,North,359,8.0,35.0,81,0.00,,,0.00,Wunderground v.1.15,2013-02-27 12:08:00,
2013-02-27 05:14:00,25.2,20.5,30.48,NNW,329,8.0,35.0,82,0.00,,,0.00,Wunderground v.1.15,2013-02-27 12:14:00,
2013-02-27 05:20:00,25.1,20.4,30.48,NNW,333,8.0,35.0,82,0.00,,,0.00,Wunderground v.1.15,2013-02-27 12:20:00,
2013-02-27 05:26:00,25.3,20.3,30.48,NNW,337,8.0,35.0,81,0.00,,,0.00,Wunderground v.1.15,2013-02-27 12:26:00,
2013-02-27 05:32:00,25.6,20.6,30.48,NNW,347,8.0,35.0,81,0.00,,,0.00,Wunderground v.1.15,2013-02-27 12:32:00,
2013-02-27 05:38:00,25.7,20.4,30.49,NNW,341,9.0,35.0,80,0.00,,,0.00,Wunderground v.1.15,2013-02-27 12:38:00,
2013-02-27 05:44:00,26.1,20.8,30.49,NNW,332,11.0,35.0,80,0.00,,,0.00,Wunderground v.1.15,2013-02-27 12:44:00,
2013-02-27 05:50:00,26.2,20.9,30.49,NNW,347,12.0,12.0,80,0.00,,,0.00,Wunderground v.1.15,2013-02-27 12:50:00,
2013-02-27 05:56:00,26.1,20.5,30.49,NNW,330,11.0,35.0,79,0.00,,,0.00,Wunderground v.1.15,2013-02-27 12:56:00,
2013-02-27 06:02:00,26.0,20.4,30.49,North,359,10.0,35.0,79,0.00,,,0.00,Wunderground v.1.15,2013-02-27 13:02:00,
2013-02-27 06:08:00,26.0,20.4,30.49,North,359,11.0,35.0,79,0.00,,,0.00,Wunderground v.1.15,2013-02-27 13:08:00,
2013-02-27 06:14:00,25.8,20.2,30.49,North,354,11.0,35.0,79,0.00,,,0.00,Wunderground v.1.15,2013-02-27 13:14:00,
2013-02-27 06:20:00,25.9,20.0,30.49,NNW,331,12.0,35.0,78,0.00,,,0.00,Wunderground v.1.15,2013-02-27 13:20:00,
2013-02-27 06:26:00,25.7,19.8,30.49,NNW,340,12.0,35.0,78,0.00,,,0.00,Wunderground v.1.15,2013-02-27 13:26:00,
2013-02-27 06:32:00,25.7,20.1,30.49,NNW,327,12.0,35.0,79,0.00,,,0.00,Wunderground v.1.15,2013-02-27 13:32:00,
2013-02-27 06:38:00,25.7,19.8,30.49,NNW,348,12.0,35.0,78,0.00,,,0.00,Wunderground v.1.15,2013-02-27 13:38:00,
2013-02-27 06:44:00,25.8,19.9,30.49,NW,312,12.0,35.0,78,0.00,,,0.00,Wunderground v.1.15,2013-02-27 13:44:00,
2013-02-27 06:50:00,25.8,20.2,30.49,NNW,338,12.0,12.0,79,0.00,,,0.00,Wunderground v.1.15,2013-02-27 13:50:00,
2013-02-27 06:56:00,25.8,20.2,30.49,NNW,335,12.0,35.0,79,0.00,,,0.00,Wunderground v.1.15,2013-02-27 13:56:00,
2013-02-27 07:02:00,25.8,20.2,30.49,NNW,348,12.0,35.0,79,0.00,,,0.00,Wunderground v.1.15,2013-02-27 14:02:00,
2013-02-27 07:08:00,26.0,20.1,30.49,NNW,336,13.0,35.0,78,0.00,,,0.00,Wunderground v.1.15,2013-02-27 14:08:00,
2013-02-27 07:14:00,26.2,20.3,30.49,NNW,336,13.0,35.0,78,0.00,,,0.00,Wunderground v.1.15,2013-02-27 14:14:00,
2013-02-27 07:20:00,26.4,20.2,30.49,NNW,339,14.0,35.0,77,0.00,,,0.00,Wunderground v.1.15,2013-02-27 14:20:00,
2013-02-27 07:26:00,26.6,20.4,30.49,NNW,348,14.0,35.0,77,0.00,,,0.00,Wunderground v.1.15,2013-02-27 14:26:00,
2013-02-27 07:32:00,26.9,20.7,30.49,NNW,330,14.0,35.0,77,0.00,,,0.00,Wunderground v.1.15,2013-02-27 14:32:00,
2013-02-27 07:38:00,27.1,20.5,30.50,NNW,342,14.0,35.0,76,0.00,,,0.00,Wunderground v.1.15,2013-02-27 14:38:00,
2013-02-27 07:44:00,27.4,20.8,30.50,NNW,333,15.0,35.0,76,0.00,,,0.00,Wunderground v.1.15,2013-02-27 14:44:00,
2013-02-27 07:50:00,27.7,21.1,30.50,NNW,344,15.0,15.0,76,0.00,,,0.00,Wunderground v.1.15,2013-02-27 14:50:00,
2013-02-27 07:56:00,27.9,21.0,30.50,NNW,342,14.0,35.0,75,0.00,,,0.00,Wunderground v.1.15,2013-02-27 14:56:00,
2013-02-27 08:02:00,28.0,21.1,30.50,NNW,341,15.0,35.0,75,0.00,,,0.00,Wunderground v.1.15,2013-02-27 15:02:00,
2013-02-27 08:08:00,28.1,21.2,30.50,North,354,14.0,35.0,75,0.00,,,0.00,Wunderground v.1.15,2013-02-27 15:08:00,
2013-02-27 08:14:00,28.1,21.2,30.50,North,349,14.0,35.0,75,0.00,,,0.00,Wunderground v.1.15,2013-02-27 15:14:00,
2013-02-27 08:20:00,28.3,21.4,30.51,NNW,347,14.0,14.0,75,0.00,,,0.00,Wunderground v.1.15,2013-02-27 15:20:00,
2013-02-27 08:26:00,28.5,21.6,30.51,North,349,13.0,35.0,75,0.00,,,0.00,Wunderground v.1.15,2013-02-27 15:26:00,
2013-02-27 08:32:00,28.3,21.7,30.51,NNW,340,14.0,14.0,76,0.00,,,0.00,Wunderground v.1.15,2013-02-27 15:32:00,
2013-02-27 08:38:00,28.4,21.8,30.51,NNW,347,14.0,35.0,76,0.00,,,0.00,Wunderground v.1.15,2013-02-27 15:38:00,
2013-02-27 08:44:00,28.8,21.9,30.51,North,4,14.0,35.0,75,0.00,,,0.00,Wunderground v.1.15,2013-02-27 15:44:00,
2013-02-27 08:50:00,28.8,22.2,30.51,NNW,343,14.0,35.0,76,0.00,,,0.00,Wunderground v.1.15,2013-02-27 15:50:00,
2013-02-27 08:56:00,28.5,21.6,30.51,NNW,347,14.0,35.0,75,0.00,,,0.00,Wunderground v.1.15,2013-02-27 15:56:00,
2013-02-27 09:02:00,28.6,22.0,30.51,NNW,346,15.0,35.0,76,0.00,,,0.00,Wunderground v.1.15,2013-02-27 16:02:00,
2013-02-27 09:08:00,28.9,22.0,30.51,North,354,16.0,35.0,75,0.00,,,0.00,Wunderground v.1.15,2013-02-27 16:08:00,
2013-02-27 09:14:00,29.4,22.5,30.52,NNW,347,14.0,35.0,75,0.00,,,0.00,Wunderground v.1.15,2013-02-27 16:14:00,
2013-02-27 09:20:00,29.5,22.2,30.52,North,349,14.0,14.0,74,0.00,,,0.00,Wunderground v.1.15,2013-02-27 16:20:00,
2013-02-27 09:26:00,29.8,22.2,30.52,NNW,338,14.0,35.0,73,0.00,,,0.00,Wunderground v.1.15,2013-02-27 16:26:00,
2013-02-27 09:32:00,30.3,22.4,30.52,North,354,14.0,35.0,72,0.00,,,0.00,Wunderground v.1.15,2013-02-27 16:32:00,
2013-02-27 09:38:00,30.5,22.5,30.53,NNW,347,14.0,35.0,72,0.00,,,0.00,Wunderground v.1.15,2013-02-27 16:38:00,
2013-02-27 09:44:00,30.7,22.1,30.52,NNW,339,15.0,35.0,70,0.00,,,0.00,Wunderground v.1.15,2013-02-27 16:44:00,
2013-02-27 09:50:00,31.2,22.5,30.52,North,354,15.0,15.0,70,0.00,,,0.00,Wunderground v.1.15,2013-02-27 16:50:00,
2013-02-27 09:56:00,31.6,22.6,30.53,NNW,330,13.0,35.0,69,0.00,,,0.00,Wunderground v.1.15,2013-02-27 16:56:00,
2013-02-27 10:02:00,32.5,22.8,30.52,North,349,13.0,35.0,67,0.00,,,0.00,Wunderground v.1.15,2013-02-27 17:02:00,
2013-02-27 10:08:00,32.6,22.8,30.53,NNW,345,15.0,35.0,67,0.00,,,0.00,Wunderground v.1.15,2013-02-27 17:08:00,
2013-02-27 10:14:00,32.9,22.8,30.52,NNW,327,15.0,35.0,66,0.00,,,0.00,Wunderground v.1.15,2013-02-27 17:14:00,
2013-02-27 10:20:00,33.3,22.4,30.52,NNW,342,15.0,15.0,64,0.00,,,0.00,Wunderground v.1.15,2013-02-27 17:20:00,
2013-02-27 10:26:00,33.0,22.1,30.52,NNW,332,16.0,35.0,64,0.00,,,0.00,Wunderground v.1.15,2013-02-27 17:26:00,
2013-02-27 10:32:00,33.2,22.3,30.53,NNW,342,16.0,35.0,64,0.00,,,0.00,Wunderground v.1.15,2013-02-27 17:32:00,
2013-02-27 10:38:00,33.5,22.6,30.52,NNW,335,15.0,35.0,64,0.00,,,0.00,Wunderground v.1.15,2013-02-27 17:38:00,
2013-02-27 10:44:00,33.8,22.9,30.52,NNW,337,15.0,35.0,64,0.00,,,0.00,Wunderground v.1.15,2013-02-27 17:44:00,
2013-02-27 10:50:00,33.8,22.1,30.52,North,354,16.0,35.0,62,0.00,,,0.00,Wunderground v.1.15,2013-02-27 17:50:00,
2013-02-27 10:56:00,33.9,22.2,30.52,NW,317,16.0,35.0,62,0.00,,,0.00,Wunderground v.1.15,2013-02-27 17:56:00,
2013-02-27 11:02:00,34.2,22.1,30.52,North,359,16.0,35.0,61,0.00,,,0.00,Wunderground v.1.15,2013-02-27 18:02:00,
2013-02-27 11:08:00,34.8,22.3,30.52,NNW,341,16.0,35.0,60,0.00,,,0.00,Wunderground v.1.15,2013-02-27 18:08:00,
2013-02-27 11:14:00,35.1,22.6,30.52,NW,325,16.0,35.0,60,0.00,,,0.00,Wunderground v.1.15,2013-02-27 18:14:00,
2013-02-27 11:20:00,35.0,22.5,30.52,NNW,330,16.0,35.0,60,0.00,,,0.00,Wunderground v.1.15,2013-02-27 18:20:00,
2013-02-27 11:26:00,35.3,22.8,30.52,NW,320,16.0,35.0,60,0.00,,,0.00,Wunderground v.1.15,2013-02-27 18:26:00,
2013-02-27 11:32:00,35.7,22.8,30.52,NW,321,15.0,35.0,59,0.00,,,0.00,Wunderground v.1.15,2013-02-27 18:32:00,
2013-02-27 11:38:00,36.2,22.4,30.52,NW,321,14.0,35.0,57,0.00,,,0.00,Wunderground v.1.15,2013-02-27 18:38:00,
2013-02-27 11:44:00,35.7,21.9,30.52,NNW,346,15.0,35.0,57,0.00,,,0.00,Wunderground v.1.15,2013-02-27 18:44:00,
2013-02-27 11:50:00,35.9,22.5,30.52,North,354,16.0,16.0,58,0.00,,,0.00,Wunderground v.1.15,2013-02-27 18:50:00,
2013-02-27 11:56:00,36.1,22.7,30.52,NNW,345,16.0,35.0,58,0.00,,,0.00,Wunderground v.1.15,2013-02-27 18:56:00,
2013-02-27 12:02:00,36.4,22.6,30.52,NNW,328,16.0,35.0,57,0.00,,,0.00,Wunderground v.1.15,2013-02-27 19:02:00,
2013-02-27 12:08:00,36.5,21.8,30.52,NW,320,15.0,35.0,55,0.00,,,0.00,Wunderground v.1.15,2013-02-27 19:08:00,
2013-02-27 12:14:00,36.7,21.6,30.51,North,9,15.0,35.0,54,0.00,,,0.00,Wunderground v.1.15,2013-02-27 19:14:00,
2013-02-27 12:20:00,36.9,21.8,30.51,NNW,328,18.0,18.0,54,0.00,,,0.00,Wunderground v.1.15,2013-02-27 19:20:00,
2013-02-27 12:26:00,37.0,21.4,30.51,NW,317,18.0,35.0,53,0.00,,,0.00,Wunderground v.1.15,2013-02-27 19:26:00,
2013-02-27 12:32:00,36.8,20.8,30.51,NNW,328,18.0,35.0,52,0.00,,,0.00,Wunderground v.1.15,2013-02-27 19:32:00,
2013-02-27 12:38:00,37.5,20.5,30.51,NW,324,17.0,35.0,50,0.00,,,0.00,Wunderground v.1.15,2013-02-27 19:38:00,
2013-02-27 12:44:00,37.1,20.6,30.51,NNW,337,16.0,35.0,51,0.00,,,0.00,Wunderground v.1.15,2013-02-27 19:44:00,
2013-02-27 12:50:00,37.6,20.6,30.51,NNW,339,16.0,35.0,50,0.00,,,0.00,Wunderground v.1.15,2013-02-27 19:50:00,
2013-02-27 12:56:00,37.3,20.3,30.50,NNW,347,17.0,35.0,50,0.00,,,0.00,Wunderground v.1.15,2013-02-27 19:56:00,
2013-02-27 13:02:00,37.6,21.1,30.50,NNW,335,17.0,35.0,51,0.00,,,0.00,Wunderground v.1.15,2013-02-27 20:02:00,
2013-02-27 13:08:00,38.3,20.3,30.50,NNW,341,15.0,35.0,48,0.00,,,0.00,Wunderground v.1.15,2013-02-27 20:08:00,
2013-02-27 13:14:00,38.1,20.1,30.50,NNW,335,15.0,35.0,48,0.00,,,0.00,Wunderground v.1.15,2013-02-27 20:14:00,
2013-02-27 13:20:00,38.3,19.3,30.50,NNW,328,16.0,35.0,46,0.00,,,0.00,Wunderground v.1.15,2013-02-27 20:20:00,
2013-02-27 13:26:00,38.6,20.1,30.50,NNW,331,16.0,35.0,47,0.00,,,0.00,Wunderground v.1.15,2013-02-27 20:26:00,
2013-02-27 13:32:00,38.9,20.4,30.50,NNW,345,16.0,22.0,47,0.00,,,0.00,Wunderground v.1.15,2013-02-27 20:32:00,
2013-02-27 13:38:00,38.7,19.2,30.50,NNW,330,17.0,35.0,45,0.00,,,0.00,Wunderground v.1.15,2013-02-27 20:38:00,
2013-02-27 13:44:00,38.7,19.7,30.50,NW,310,18.0,35.0,46,0.00,,,0.00,Wunderground v.1.15,2013-02-27 20:44:00,
2013-02-27 13:50:00,38.9,19.3,30.50,NNW,336,18.0,18.0,45,0.00,,,0.00,Wunderground v.1.15,2013-02-27 20:50:00,
2013-02-27 13:56:00,39.3,19.7,30.50,NW,324,16.0,35.0,45,0.00,,,0.00,Wunderground v.1.15,2013-02-27 20:56:00,
2013-02-27 14:02:00,39.1,19.5,30.49,NW,314,16.0,35.0,45,0.00,,,0.00,Wunderground v.1.15,2013-02-27 21:02:00,
2013-02-27 14:08:00,39.5,19.9,30.49,North,354,15.0,35.0,45,0.00,,,0.00,Wunderground v.1.15,2013-02-27 21:08:00,
2013-02-27 14:14:00,39.2,20.1,30.49,NNW,335,14.0,35.0,46,0.00,,,0.00,Wunderground v.1.15,2013-02-27 21:14:00,
2013-02-27 14:20:00,39.3,19.7,30.49,NNW,330,16.0,35.0,45,0.00,,,0.00,Wunderground v.1.15,2013-02-27 21:20:00,
2013-02-27 14:26:00,39.7,19.5,30.50,NNW,339,15.0,35.0,44,0.00,,,0.00,Wunderground v.1.15,2013-02-27 21:26:00,
2013-02-27 14:32:00,39.5,20.4,30.50,North,350,14.0,35.0,46,0.00,,,0.00,Wunderground v.1.15,2013-02-27 21:32:00,
2013-02-27 14:38:00,39.7,20.1,30.50,NNW,330,15.0,35.0,45,0.00,,,0.00,Wunderground v.1.15,2013-02-27 21:38:00,
2013-02-27 14:44:00,39.8,20.2,30.50,NNW,332,15.0,35.0,45,0.00,,,0.00,Wunderground v.1.15,2013-02-27 21:44:00,
2013-02-27 14:50:00,39.8,19.6,30.50,NW,325,16.0,35.0,44,0.00,,,0.00,Wunderground v.1.15,2013-02-27 21:50:00,
2013-02-27 14:56:00,39.9,20.8,30.50,NNW,347,14.0,35.0,46,0.00,,,0.00,Wunderground v.1.15,2013-02-27 21:56:00,
2013-02-27 15:02:00,39.8,20.2,30.50,NNW,338,15.0,17.0,45,0.00,,,0.00,Wunderground v.1.15,2013-02-27 22:02:00,
2013-02-27 15:08:00,39.5,19.9,30.50,NNW,335,15.0,35.0,45,0.00,,,0.00,Wunderground v.1.15,2013-02-27 22:08:00,
2013-02-27 15:14:00,40.1,19.9,30.50,NW,321,14.0,35.0,44,0.00,,,0.00,Wunderground v.1.15,2013-02-27 22:14:00,
2013-02-27 15:20:00,39.8,19.6,30.50,NNW,343,14.0,14.0,44,0.00,,,0.00,Wunderground v.1.15,2013-02-27 22:20:00,
2013-02-27 15:26:00,39.9,19.7,30.50,NW,322,14.0,35.0,44,0.00,,,0.00,Wunderground v.1.15,2013-02-27 22:26:00,
2013-02-27 15:32:00,39.0,19.4,30.51,NW,326,15.0,35.0,45,0.00,,,0.00,Wunderground v.1.15,2013-02-27 22:32:00,
2013-02-27 15:38:00,39.2,20.1,30.51,NW,324,15.0,35.0,46,0.00,,,0.00,Wunderground v.1.15,2013-02-27 22:38:00,
2013-02-27 15:44:00,39.4,19.8,30.51,WNW,299,14.0,35.0,45,0.00,,,0.00,Wunderground v.1.15,2013-02-27 22:44:00,
2013-02-27 15:50:00,39.1,19.5,30.51,NNW,337,14.0,14.0,45,0.00,,,0.00,Wunderground v.1.15,2013-02-27 22:50:00,
2013-02-27 15:56:00,39.3,20.2,30.51,NNW,331,12.0,35.0,46,0.00,,,0.00,Wunderground v.1.15,2013-02-27 22:56:00,
2013-02-27 16:02:00,39.2,20.1,30.51,NNW,330,13.0,35.0,46,0.00,,,0.00,Wunderground v.1.15,2013-02-27 23:02:00,
2013-02-27 16:08:00,39.2,19.6,30.51,NNW,335,14.0,35.0,45,0.00,,,0.00,Wunderground v.1.15,2013-02-27 23:08:00,
2013-02-27 16:14:00,39.2,19.6,30.51,NW,312,13.0,35.0,45,0.00,,,0.00,Wunderground v.1.15,2013-02-27 23:14:00,
2013-02-27 16:20:00,38.9,19.3,30.51,NNW,331,12.0,35.0,45,0.00,,,0.00,Wunderground v.1.15,2013-02-27 23:20:00,
2013-02-27 16:26:00,38.3,19.3,30.51,NNW,339,13.0,35.0,46,0.00,,,0.00,Wunderground v.1.15,2013-02-27 23:26:00,
2013-02-27 16:32:00,38.0,19.5,30.51,NNW,330,12.0,35.0,47,0.00,,,0.00,Wunderground v.1.15,2013-02-27 23:32:00,
2013-02-27 16:38:00,37.9,19.9,30.52,NNW,335,11.0,35.0,48,0.00,,,0.00,Wunderground v.1.15,2013-02-27 23:38:00,
2013-02-27 16:44:00,37.8,19.8,30.52,NNW,337,9.0,35.0,48,0.00,,,0.00,Wunderground v.1.15,2013-02-27 23:44:00,
2013-02-27 16:50:00,37.6,19.7,30.52,WNW,300,9.0,35.0,48,0.00,,,0.00,Wunderground v.1.15,2013-02-27 23:50:00,
2013-02-27 16:56:00,37.5,19.6,30.52,NNW,339,9.0,35.0,48,0.00,,,0.00,Wunderground v.1.15,2013-02-27 23:56:00,
2013-02-27 17:02:00,37.5,19.6,30.52,NW,320,10.0,35.0,48,0.00,,,0.00,Wunderground v.1.15,2013-02-28 00:02:00,
2013-02-27 17:08:00,37.5,19.6,30.52,NNW,337,9.0,35.0,48,0.00,,,0.00,Wunderground v.1.15,2013-02-28 00:08:00,
2013-02-27 17:14:00,37.5,19.6,30.52,NNW,345,8.0,35.0,48,0.00,,,0.00,Wunderground v.1.15,2013-02-28 00:14:00,
2013-02-27 17:20:00,37.4,19.5,30.52,NNW,341,7.0,7.0,48,0.00,,,0.00,Wunderground v.1.15,2013-02-28 00:20:00,
2013-02-27 17:26:00,36.8,19.9,30.52,NNE,26,6.0,35.0,50,0.00,,,0.00,Wunderground v.1.15,2013-02-28 00:26:00,
2013-02-27 17:32:00,35.6,19.7,30.52,NE,36,7.0,35.0,52,0.00,,,0.00,Wunderground v.1.15,2013-02-28 00:32:00,
2013-02-27 17:38:00,34.9,19.9,30.52,NE,40,6.0,35.0,54,0.00,,,0.00,Wunderground v.1.15,2013-02-28 00:38:00,
2013-02-27 17:44:00,34.3,19.8,30.52,NE,43,4.0,35.0,55,0.00,,,0.00,Wunderground v.1.15,2013-02-28 00:44:00,
2013-02-27 17:50:00,33.8,19.7,30.53,NE,39,4.0,35.0,56,0.00,,,0.00,Wunderground v.1.15,2013-02-28 00:50:00,
2013-02-27 17:56:00,33.4,19.8,30.53,NE,44,5.0,35.0,57,0.00,,,0.00,Wunderground v.1.15,2013-02-28 00:56:00,
2013-02-27 18:02:00,32.9,19.7,30.53,NE,37,4.0,35.0,58,0.00,,,0.00,Wunderground v.1.15,2013-02-28 01:02:00,
2013-02-27 18:08:00,32.0,18.9,30.53,NE,38,3.0,35.0,58,0.00,,,0.00,Wunderground v.1.15,2013-02-28 01:08:00,
2013-02-27 18:14:00,31.2,18.9,30.53,NE,37,2.0,35.0,60,0.00,,,0.00,Wunderground v.1.15,2013-02-28 01:14:00,
2013-02-27 18:20:00,30.5,18.6,30.53,NE,37,1.0,1.0,61,0.00,,,0.00,Wunderground v.1.15,2013-02-28 01:20:00,
2013-02-27 18:26:00,30.1,18.6,30.53,NE,38,1.0,35.0,62,0.00,,,0.00,Wunderground v.1.15,2013-02-28 01:26:00,
2013-02-27 18:32:00,29.7,18.6,30.53,NE,54,2.0,35.0,63,0.00,,,0.00,Wunderground v.1.15,2013-02-28 01:32:00,
2013-02-27 18:38:00,29.5,18.4,30.53,ENE,78,2.0,35.0,63,0.00,,,0.00,Wunderground v.1.15,2013-02-28 01:38:00,
2013-02-27 18:44:00,29.1,18.4,30.53,ENE,65,2.0,35.0,64,0.00,,,0.00,Wunderground v.1.15,2013-02-28 01:44:00,
2013-02-27 18:50:00,28.8,18.5,30.53,ENE,75,2.0,35.0,65,0.00,,,0.00,Wunderground v.1.15,2013-02-28 01:50:00,
2013-02-27 18:56:00,28.7,18.8,30.54,ENE,75,2.0,35.0,66,0.00,,,0.00,Wunderground v.1.15,2013-02-28 01:56:00,
2013-02-27 19:02:00,28.5,18.9,30.54,ENE,73,2.0,35.0,67,0.00,,,0.00,Wunderground v.1.15,2013-02-28 02:02:00,
2013-02-27 19:08:00,28.2,18.6,30.54,ENE,73,2.0,35.0,67,0.00,,,0.00,Wunderground v.1.15,2013-02-28 02:08:00,
2013-02-27 19:14:00,28.0,18.8,30.54,ENE,73,2.0,35.0,68,0.00,,,0.00,Wunderground v.1.15,2013-02-28 02:14:00,
2013-02-27 19:20:00,28.0,19.1,30.54,ENE,77,2.0,2.0,69,0.00,,,0.00,Wunderground v.1.15,2013-02-28 02:20:00,
2013-02-27 19:26:00,28.0,19.1,30.54,ENE,77,1.0,35.0,69,0.00,,,0.00,Wunderground v.1.15,2013-02-28 02:26:00,
2013-02-27 19:32:00,27.8,18.9,30.54,ENE,77,1.0,35.0,69,0.00,,,0.00,Wunderground v.1.15,2013-02-28 02:32:00,
2013-02-27 19:38:00,27.6,19.1,30.54,ENE,77,1.0,35.0,70,0.00,,,0.00,Wunderground v.1.15,2013-02-28 02:38:00,
2013-02-27 19:44:00,27.2,18.7,30.54,ENE,77,1.0,35.0,70,0.00,,,0.00,Wunderground v.1.15,2013-02-28 02:44:00,
2013-02-27 19:50:00,27.0,18.8,30.54,ENE,77,0.0,35.0,71,0.00,,,0.00,Wunderground v.1.15,2013-02-28 02:50:00,
2013-02-27 19:56:00,26.9,18.7,30.54,ENE,77,0.0,35.0,71,0.00,,,0.00,Wunderground v.1.15,2013-02-28 02:56:00,
2013-02-27 20:02:00,26.8,18.7,30.54,ENE,77,0.0,35.0,71,0.00,,,0.00,Wunderground v.1.15,2013-02-28 03:02:00,
2013-02-27 20:08:00,26.5,18.4,30.55,ENE,77,0.0,35.0,71,0.00,,,0.00,Wunderground v.1.15,2013-02-28 03:08:00,
2013-02-27 20:14:00,25.9,18.1,30.55,ENE,77,1.0,35.0,72,0.00,,,0.00,Wunderground v.1.15,2013-02-28 03:14:00,
2013-02-27 20:20:00,25.6,17.8,30.54,ENE,77,1.0,1.0,72,0.00,,,0.00,Wunderground v.1.15,2013-02-28 03:20:00,
2013-02-27 20:26:00,25.4,17.9,30.54,ENE,77,0.0,35.0,73,0.00,,,0.00,Wunderground v.1.15,2013-02-28 03:26:00,
2013-02-27 20:32:00,25.2,17.8,30.54,ENE,77,0.0,35.0,73,0.00,,,0.00,Wunderground v.1.15,2013-02-28 03:32:00,
2013-02-27 20:38:00,24.9,17.5,30.54,ENE,77,0.0,35.0,73,0.00,,,0.00,Wunderground v.1.15,2013-02-28 03:38:00,
2013-02-27 20:44:00,24.8,17.7,30.54,ENE,77,0.0,35.0,74,0.00,,,0.00,Wunderground v.1.15,2013-02-28 03:44:00,
2013-02-27 20:50:00,24.8,18.0,30.54,ENE,77,0.0,35.0,75,0.00,,,0.00,Wunderground v.1.15,2013-02-28 03:50:00,
2013-02-27 20:56:00,24.7,17.9,30.54,ENE,77,0.0,35.0,75,0.00,,,0.00,Wunderground v.1.15,2013-02-28 03:56:00,
2013-02-27 21:02:00,24.9,18.1,30.55,ENE,77,0.0,35.0,75,0.00,,,0.00,Wunderground v.1.15,2013-02-28 04:02:00,
2013-02-27 21:08:00,24.9,18.1,30.55,ENE,77,0.0,35.0,75,0.00,,,0.00,Wunderground v.1.15,2013-02-28 04:08:00,
2013-02-27 21:14:00,25.0,18.2,30.55,ENE,77,0.0,35.0,75,0.00,,,0.00,Wunderground v.1.15,2013-02-28 04:14:00,
2013-02-27 21:20:00,25.2,18.4,30.55,ENE,77,0.0,35.0,75,0.00,,,0.00,Wunderground v.1.15,2013-02-28 04:20:00,
2013-02-27 21:26:00,25.2,18.4,30.55,ENE,77,0.0,35.0,75,0.00,,,0.00,Wunderground v.1.15,2013-02-28 04:26:00,
2013-02-27 21:32:00,25.0,18.2,30.55,ENE,77,0.0,35.0,75,0.00,,,0.00,Wunderground v.1.15,2013-02-28 04:32:00,
2013-02-27 21:38:00,24.9,18.4,30.55,ENE,77,0.0,35.0,76,0.00,,,0.00,Wunderground v.1.15,2013-02-28 04:38:00,
2013-02-27 21:44:00,24.8,18.3,30.55,ENE,77,0.0,35.0,76,0.00,,,0.00,Wunderground v.1.15,2013-02-28 04:44:00,
2013-02-27 21:50:00,24.6,18.1,30.55,ENE,77,1.0,1.0,76,0.00,,,0.00,Wunderground v.1.15,2013-02-28 04:50:00,
2013-02-27 21:56:00,24.6,18.4,30.56,ENE,77,0.0,35.0,77,0.00,,,0.00,Wunderground v.1.15,2013-02-28 04:56:00,
2013-02-27 22:00:00,24.7,18.5,30.56,ENE,77,0.0,35.0,77,0.00,,,0.00,Wunderground v.1.15,2013-02-28 05:00:00,
2013-02-27 22:02:00,24.8,18.6,30.56,ENE,77,0.0,35.0,77,0.00,,,0.00,Wunderground v.1.15,2013-02-28 05:02:00,
2013-02-27 22:04:00,24.8,18.6,30.56,ENE,77,0.0,35.0,77,0.00,,,0.00,Wunderground v.1.15,2013-02-28 05:04:00,
2013-02-27 22:06:00,24.9,18.7,30.56,ENE,77,0.0,35.0,77,0.00,,,0.00,Wunderground v.1.15,2013-02-28 05:06:00,
2013-02-27 22:12:00,24.9,18.7,30.56,ENE,77,0.0,35.0,77,0.00,,,0.00,Wunderground v.1.15,2013-02-28 05:12:00,
2013-02-27 22:18:00,24.8,18.6,30.56,ENE,77,0.0,35.0,77,0.00,,,0.00,Wunderground v.1.15,2013-02-28 05:18:00,
2013-02-27 22:24:00,24.6,18.4,30.56,ENE,77,1.0,35.0,77,0.00,,,0.00,Wunderground v.1.15,2013-02-28 05:24:00,
2013-02-27 22:30:00,24.0,17.8,30.56,ENE,77,1.0,35.0,77,0.00,,,0.00,Wunderground v.1.15,2013-02-28 05:30:00,
2013-02-27 22:36:00,23.7,18.4,30.56,ENE,77,2.0,35.0,80,0.00,,,0.00,Wunderground v.1.15,2013-02-28 05:36:00,
2013-02-27 22:42:00,24.0,19.0,30.56,ENE,77,2.0,35.0,81,0.00,,,0.00,Wunderground v.1.15,2013-02-28 05:42:00,
2013-02-27 22:48:00,24.2,19.2,30.56,ENE,77,1.0,35.0,81,0.00,,,0.00,Wunderground v.1.15,2013-02-28 05:48:00,
2013-02-27 22:54:00,24.3,19.3,30.56,ENE,77,1.0,35.0,81,0.00,,,0.00,Wunderground v.1.15,2013-02-28 05:54:00,
2013-02-27 23:00:00,24.7,19.7,30.56,ENE,77,2.0,35.0,81,0.00,,,0.00,Wunderground v.1.15,2013-02-28 06:00:00,
2013-02-27 23:06:00,24.7,19.7,30.56,ENE,77,2.0,35.0,81,0.00,,,0.00,Wunderground v.1.15,2013-02-28 06:06:00,
2013-02-27 23:12:00,24.4,19.4,30.56,ENE,77,2.0,35.0,81,0.00,,,0.00,Wunderground v.1.15,2013-02-28 06:12:00,
2013-02-27 23:18:00,24.3,19.3,30.56,ENE,77,2.0,35.0,81,0.00,,,0.00,Wunderground v.1.15,2013-02-28 06:18:00,
2013-02-27 23:24:00,24.1,19.1,30.56,ENE,77,2.0,35.0,81,0.00,,,0.00,Wunderground v.1.15,2013-02-28 06:24:00,
2013-02-27 23:30:00,23.2,17.7,30.55,East,83,2.0,35.0,79,0.00,,,0.00,Wunderground v.1.15,2013-02-28 06:30:00,
2013-02-27 23:36:00,22.1,17.2,30.55,East,86,2.0,35.0,81,0.00,,,0.00,Wunderground v.1.15,2013-02-28 06:36:00,
2013-02-27 23:42:00,21.8,17.4,30.55,South,178,3.0,35.0,83,0.00,,,0.00,Wunderground v.1.15,2013-02-28 06:42:00,
2013-02-27 23:48:00,21.7,17.6,30.55,South,190,4.0,35.0,84,0.00,,,0.00,Wunderground v.1.15,2013-02-28 06:48:00,
2013-02-27 23:54:00,21.3,16.9,30.55,South,186,5.0,35.0,83,0.00,,,0.00,Wunderground v.1.15,2013-02-28 06:54:00,